BREEZE-M DEB, 41544

Orbit data source: Space-Track

BREEZE-M DEB, 41544 is space debris in GEO originally from a launch on Sun, 13 Dec 2015 UTC launched from the Tyuratam Missile And Space Complex (TTMTR). Debris objects in space refer to the collection of defunct objects orbiting the Earth. Examples of debris include non-operational satellites, rocket bodies, and fragments generated from explosions, collisions, or faulty payload assembly.

Loading next visibility...
Identifier
41544, 2015-075E
Orbit
GEO
Country
Flag of CISCIS
Related business
Manufacturer
Khrunichev
Mission
Spacecraft
Bus & Motor
Unknown
Mass
Unknown
Launch date (UTC)
2015-12-13 (11 years ago)
Launch vehicle
Unknown
Launch site
Tyuratam Missile And Space Complex (TTMTR)
Object type
Payload
Rocket body
Debris
Shape & HBR
Unknown shape, 1.1 m
Radar Cross Section
Medium (>0.1 m² and <1 m²)

Expand to show TLE details & history
Last TLE update: 3 days ago

TLE from 3 days ago
0 BREEZE-M DEB
1 41544U 15075E   26170.83291572 -.00000143  00000-0  00000+0 0  9997
2 41544   8.4030  59.4776 0319739 175.1973 185.0190  1.05680359 40261
Epoch: 2026-06-19T19:59Z
TLE epoch observation values (Epoch: 2026-06-19T19:59:23.918Z)
Latitude
Longitude
-148.49507°
Altitude
35,633.808 km
Speed
3.031 km/s
True Right ascension
03h 57m 38s
True Declination
0° 00' 00"
Sunlit
Object was in daylight at epoch
Visualization orbit readout
Latitude
Unknown
Longitude
Unknown
Altitude
Unknown
Speed
Unknown
Apparent Right ascension
Unknown
Apparent Declination
Unknown
Sunlit
N/A
Visualization observer readout
Local Sidereal Time
21:23:32
Azimuth
Unknown
Elevation
Unknown
Doppler factor
Unknown
Orbital elements
Apogee altitude
35,638.294 km
Perigee altitude
33,034.683 km
Semi-major axis
40,714.625 km
Eccentricity
0.03197
Inclination
8.403°
RAAN
59.4776°
Arg. of periapsis
175.1973°
True anomaly
184.71075°
Mean anomaly
185.019°
Eccentric anomaly
184.86368°
Mean motion
0.26419 °/min
Orbital period
1,362.65 mins
BSTAR
0
Loading maneuver chart data...
Computing Atmospheric mass density...
Loading historical data...
Loading historical data...
Loading historical data...
Loading historical data...
Loading historical data...
Loading historical data...
Loading historical data...

Documentation

Showing up to 5 results
|